Weather History for Bandar Lengeh, Iran

Change the Weather History Date:

Wednesday, April 17, 2013

  Actual Average Record
Temperature  
Mean Temperature 89 °F -  
Max Temperature 102 °F 92 °F - ()
Min Temperature 76 °F 73 °F - ()
Cooling Degree Days 24    
Growing Degree Days 39 (Base 50)    
Moisture  
Dew Point 53 °F    
Average Humidity 33    
Maximum Humidity 74    
Minimum Humidity 12    
Precipitation  
Precipitation 0.00 in 0.01 in - ()
Sea Level Pressure  
Sea Level Pressure 29.67 in    
Wind  
Wind Speed 11 mph ()    
Max Wind Speed 22 mph    
Max Gust Speed -    
Visibility 4.8 miles    
Events      
T = Trace of Precipitation, MM = Missing Value Source: Averaged Metar Reports

Daily Weather History Graph

Daily Weather History Graph

Search for Another Location

Airport:

Trip Planner

Search our weather history database for the weather conditions in past years. The results will help you decide how hot, cold, wet, or windy it might be!

Date:

Astronomy

Apr. 17, 2013 Rise Set
Actual Time 6:25 AM IRDT 7:15 PM IRDT
Civil Twilight 6:01 AM IRDT 7:39 PM IRDT
Nautical Twilight 5:33 AM IRDT 8:07 PM IRDT
Astronomical Twilight 5:05 AM IRDT 8:36 PM IRDT
Moon 11:28 AM IRDT (4/17) No Moon Set
Length of Visible Light 13h 37m
Length of Day
12h 50m
Waxing Crescent, 39% of the Moon is Illuminated
Apr 17
Waxing Crescent
Apr 18
First Quarter
Apr 26
Full
May 2
Last Quarter
May 10
New

Hourly Weather History & Observations

Time (IRDT) Temp. Heat Index Dew Point Humidity Pressure Visibility Wind Dir Wind Speed Gust Speed Precip Events Conditions
1:20 AM 77.0 °F - 53.6 °F 44% 29.74 in - West 6.9 mph - N/A   Clear
1:30 AM 77.0 °F - 53.6 °F 44% 29.74 in - West 6.9 mph - N/A   Clear
4:30 AM 82 °F - 51 °F 23% 29.69 in 6 mi NW 6.7 mph - -  
4:30 AM 82.4 °F - 50.0 °F 32% 29.68 in - NW 6.9 mph - N/A   Clear
6:30 AM 78.8 °F - 55.4 °F 44% 29.71 in - Calm Calm - N/A   Clear
7:30 AM 89.6 °F - 44.6 °F 21% 29.74 in 4.3 mi WNW 18.4 mph - N/A   Mostly Cloudy
8:20 AM 87.8 °F - 48.2 °F 25% 29.74 in 4.3 mi NW 18.4 mph - N/A   Mostly Cloudy
8:30 AM 87.8 °F - 48.2 °F 25% 29.74 in 4.3 mi NW 18.4 mph - N/A   Mostly Cloudy
9:20 AM 89.6 °F - 46.4 °F 22% 29.71 in 5.0 mi North 6.9 mph - N/A   Mostly Cloudy
9:30 AM 89.6 °F - 46.4 °F 22% 29.71 in 5.0 mi North 6.9 mph - N/A   Mostly Cloudy
10:20 AM 93.2 °F - 44.6 °F 19% 29.74 in 4.3 mi NW 16.1 mph - N/A   Mostly Cloudy
10:30 AM 92 °F - 45 °F 12% 29.75 in 4 mi NW 15.7 mph - -   Blowing Sand
10:30 AM 93.2 °F - 44.6 °F 19% 29.74 in 4.3 mi NW 16.1 mph - N/A   Mostly Cloudy
11:20 AM 95.0 °F - 42.8 °F 16% 29.71 in 4.3 mi NW 16.1 mph - N/A   Mostly Cloudy
11:30 AM 95.0 °F - 42.8 °F 16% 29.71 in 4.3 mi NW 16.1 mph - N/A   Mostly Cloudy
12:20 PM 98.6 °F - 39.2 °F 13% 29.71 in 5.0 mi NNW 13.8 mph - N/A   Unknown
12:30 PM 98.6 °F - 39.2 °F 13% 29.71 in 5.0 mi NNW 13.8 mph - N/A   Unknown
1:20 PM 100.4 °F - 46.4 °F 16% 29.68 in 5.0 mi WSW 18.4 mph - N/A   Unknown
1:30 PM 100.4 °F - 46.4 °F 16% 29.68 in 5.0 mi WSW 18.4 mph - N/A   Unknown
2:20 PM 102.2 °F - 48.2 °F 16% 29.68 in - West 16.1 mph - N/A   Clear
2:30 PM 102.2 °F - 48.2 °F 16% 29.68 in - West 16.1 mph - N/A   Clear
3:20 PM 100.4 °F - 46.4 °F 16% 29.68 in - West 13.8 mph - N/A   Clear
3:30 PM 100.4 °F - 46.4 °F 16% 29.68 in - West 13.8 mph - N/A   Clear
4:20 PM 96.8 °F 94.4 °F 53.6 °F 23% 29.62 in - WSW 21.9 mph - N/A   Clear
4:30 PM 97 °F - 53 °F 14% 29.64 in 6 mi WSW 22.4 mph - -   Clear
4:30 PM 96.8 °F 94.4 °F 53.6 °F 23% 29.62 in - WSW 21.9 mph - N/A   Clear
5:20 PM 95.0 °F 93.7 °F 57.2 °F 28% 29.62 in - WSW 13.8 mph - N/A   Clear
5:30 PM 95.0 °F 93.7 °F 57.2 °F 28% 29.62 in - WSW 13.8 mph - N/A   Clear
6:20 PM 91.4 °F 90.7 °F 59.0 °F 34% 29.62 in - WSW 16.1 mph - N/A   Clear
6:30 PM 91.4 °F 90.7 °F 59.0 °F 34% 29.62 in - WSW 16.1 mph - N/A   Clear
7:20 PM 86.0 °F 89.4 °F 68.0 °F 55% 29.62 in - WSW 18.4 mph - N/A   Clear
7:30 PM 86.0 °F 89.4 °F 68.0 °F 55% 29.62 in - WSW 18.4 mph - N/A   Clear
8:20 PM 78.8 °F - 68.0 °F 69% 29.62 in - WSW 13.8 mph - N/A   Clear
8:30 PM 78.8 °F - 68.0 °F 69% 29.62 in - WSW 13.8 mph - N/A   Clear
9:20 PM 77.0 °F - 66.2 °F 69% 29.62 in - West 11.5 mph - N/A   Clear
9:30 PM 77.0 °F - 66.2 °F 69% 29.62 in - West 11.5 mph - N/A   Clear
10:20 PM 77.0 °F - 68.0 °F 74% 29.62 in - West 11.5 mph - N/A   Clear
10:30 PM 76 °F - 67 °F 68% 29.65 in 6 mi West 11.2 mph - -  
10:30 PM 77.0 °F - 68.0 °F 74% 29.62 in - West 11.5 mph - N/A   Clear